Location: Peebles
(55.6412°N, 3.1714°W)
Time: 10:45:39
(UTC+00:00)

deb Kosmos-1275 - Pass Details

Date: 06 December 2022
Orbit: 808 x 888 km, 83.0° (Epoch: 01 February)

Event Time Altitude Azimuth Distance (km) Brightness Sun altitude
Rises 07:21:04 0° 347° (NNW) 3,429 ? -8.2°
Reaches altitude 10° 07:23:31 10° 346° (NNW) 2,477 ? -7.9°
Maximum altitude 07:29:05 73° 263° (W) 873 ? -7.2°
Drops below altitude 10° 07:34:30 10° 180° (S) 2,411 ? -6.6°
Sets 07:36:52 0° 178° (S) 3,331 ? -6.3°
